Location: Great Malvern
(52.1167°N, 2.3167°W)
Time: 15:31:20
(UTC+00:00)

Cosmos 1733 - Pass Details

Date: 18 September 2020
Orbit: 504 x 523 km, 82.5° (Epoch: 22 October)

Event Time Altitude Azimuth Distance (km) Brightness Sun altitude
Exits shadow 20:52:11 52° 20° (NNE) 656 3.7 -23.2°
Drops below altitude 10° 20:55:10 10° 12° (NNE) 1,760 6.2 -23.5°
Sets 20:57:18 0° 12° (NNE) 2,650 7.1 -23.8°
